Location: Sulphur Springs (historical)
(38.1246°N, 122.1900°W)
Time: 05:14:45
(UTC+00:00)

Meteor 2-5 Rocket - Pass Details

Date: 29 October 2020
Orbit: 833 x 911 km, 81.2° (Epoch: 29 November)

Event Time Altitude Azimuth Distance (km) Brightness Sun altitude
Rises 12:43:46 0° 198° (SSW) 3,413 6.7 -21.8°
Reaches altitude 10° 12:46:12 10° 202° (SSW) 2,492 5.9 -21.4°
Maximum altitude 12:51:47 60° 281° (WNW) 998 3.7 -20.3°
Drops below altitude 10° 12:57:32 10° 1° (N) 2,560 6.2 -19.1°
Sets 13:00:04 0° 6° (N) 3,515 7.0 -18.6°
